RYR1KM EIDW-ELLX

Flight info

Callsign RYR1KM
Flight time N/A
Altitude 37000
Route DEXEN2J DEXEN UY124 AMPIT L15 FINMA DCT CHT DCT ITVIP DCT KONAN DCT KOK UL607 FERDI DCT REMBA REMBA3D
Aircraft A320/M-SDE3FGHIRWY/LB1

Departure

Time 2026-05-05 15:57
Airport Dublin Airport (EIDW)

Arrival

Time N/A
Airport Luxembourg-Findel International Airport (ELLX)
Time Latitude Longitude Altitude Speed Heading
2026-05-05 15:44 53.43013 -6.24943 211 ft 0 kts
2026-05-05 15:51 53.43011 -6.24943 211 ft 2 kts
2026-05-05 15:51 53.42994 -6.24946 215 ft 2 kts
2026-05-05 15:51 53.42976 -6.24948 211 ft 2 kts
2026-05-05 15:51 53.42960 -6.24946 211 ft 2 kts 353°
2026-05-05 15:52 53.42945 -6.24934 211 ft 2 kts 283°
2026-05-05 15:52 53.42944 -6.24928 215 ft 0 kts 279°
2026-05-05 15:53 53.42950 -6.24977 213 ft 13 kts 280°
2026-05-05 15:53 53.42962 -6.25165 211 ft 18 kts 272°
2026-05-05 15:53 53.42959 -6.25357 219 ft 16 kts 317°
2026-05-05 15:54 53.43068 -6.25441 214 ft 19 kts 336°
2026-05-05 15:54 53.43197 -6.25533 213 ft 21 kts 336°
2026-05-05 15:54 53.43342 -6.25640 212 ft 24 kts 337°
2026-05-05 15:54 53.43403 -6.25489 211 ft 21 kts 94°
2026-05-05 15:55 53.43389 -6.25235 216 ft 23 kts 95°
2026-05-05 15:55 53.43375 -6.24956 215 ft 25 kts 96°
2026-05-05 15:55 53.43358 -6.24657 215 ft 24 kts 92°
2026-05-05 15:55 53.43452 -6.24551 212 ft 18 kts
2026-05-05 15:56 53.43527 -6.24634 214 ft 17 kts 276°
2026-05-05 15:56 53.43555 -6.25137 211 ft 78 kts 275°
2026-05-05 15:56 53.43627 -6.26411 213 ft 137 kts 275°
2026-05-05 15:56 53.43726 -6.28172 518 ft 154 kts 276°
2026-05-05 15:57 53.43877 -6.29951 1079 ft 157 kts 297°
2026-05-05 15:57 53.44571 -6.31302 1708 ft 150 kts 321°
2026-05-05 15:57 53.45362 -6.32452 2218 ft 156 kts 320°
2026-05-05 15:57 53.46120 -6.33947 2493 ft 180 kts 310°
2026-05-05 15:58 53.46909 -6.35755 2815 ft 203 kts 307°
2026-05-05 15:58 53.47749 -6.37771 3175 ft 225 kts 307°
2026-05-05 15:58 53.48688 -6.40043 3685 ft 246 kts 306°
2026-05-05 15:58 53.49681 -6.42445 4588 ft 253 kts 306°
2026-05-05 15:59 53.50671 -6.44901 5598 ft 256 kts 300°
2026-05-05 15:59 53.51078 -6.47810 6523 ft 264 kts 266°
2026-05-05 15:59 53.50403 -6.50690 7361 ft 274 kts 232°
2026-05-05 15:59 53.48821 -6.52537 8209 ft 285 kts 198°
2026-05-05 16:00 53.46842 -6.52669 9048 ft 292 kts 165°
2026-05-05 16:00 53.45066 -6.51024 9879 ft 296 kts 136°
2026-05-05 16:00 53.43686 -6.48376 10405 ft 312 kts 128°
2026-05-05 16:00 53.42314 -6.45529 10651 ft 334 kts 128°
2026-05-05 16:01 53.40831 -6.42416 11162 ft 346 kts 128°
2026-05-05 16:01 53.39325 -6.39253 11872 ft 351 kts 128°
2026-05-05 16:01 53.37971 -6.35823 12641 ft 356 kts 117°
2026-05-05 16:01 53.37079 -6.32192 13347 ft 360 kts 105°
2026-05-05 16:02 53.36562 -6.28071 14092 ft 364 kts 99°
2026-05-05 16:02 53.36129 -6.23877 14779 ft 368 kts 99°
2026-05-05 16:02 53.35686 -6.19673 15468 ft 372 kts 99°
2026-05-05 16:02 53.35242 -6.15508 16122 ft 376 kts 99°
2026-05-05 16:03 53.34784 -6.11234 16764 ft 380 kts 99°
2026-05-05 16:03 53.34313 -6.06864 17408 ft 384 kts 100°
2026-05-05 16:03 53.33870 -6.02779 18019 ft 388 kts 100°
2026-05-05 16:03 53.33439 -5.98813 18567 ft 391 kts 100°
2026-05-05 16:04 53.33017 -5.94940 19070 ft 395 kts 100°
2026-05-05 16:04 53.32728 -5.92288 19422 ft 397 kts 100°
2026-05-05 16:04 53.32263 -5.88032 20001 ft 401 kts 100°
2026-05-05 16:04 53.31825 -5.84040 20543 ft 405 kts 101°
2026-05-05 16:05 53.31314 -5.79403 21157 ft 410 kts 101°
2026-05-05 16:05 53.30793 -5.74687 21759 ft 414 kts 101°
2026-05-05 16:05 53.30263 -5.69923 22349 ft 418 kts 101°
2026-05-05 16:05 53.29757 -5.65373 22900 ft 422 kts 101°
2026-05-05 16:06 53.29276 -5.61066 23413 ft 426 kts 101°
2026-05-05 16:06 53.28758 -5.56445 23888 ft 430 kts 101°
2026-05-05 16:06 53.28212 -5.51515 24388 ft 434 kts 99°
2026-05-05 16:06 53.27922 -5.46457 24730 ft 442 kts 93°
2026-05-05 16:07 53.27769 -5.41283 24951 ft 451 kts 93°
2026-05-05 16:07 53.27623 -5.35984 25075 ft 463 kts 92°
2026-05-05 16:07 53.27480 -5.30619 25200 ft 473 kts 92°
2026-05-05 16:07 53.27324 -5.25085 25325 ft 481 kts 93°
2026-05-05 16:08 53.27158 -5.19455 25449 ft 489 kts 93°
2026-05-05 16:08 53.26983 -5.13755 25575 ft 494 kts 93°
2026-05-05 16:08 53.26796 -5.08010 25740 ft 497 kts 94°
2026-05-05 16:08 53.26601 -5.02236 25996 ft 498 kts 94°
2026-05-05 16:09 53.26403 -4.96464 26289 ft 497 kts 94°
2026-05-05 16:09 53.26206 -4.90704 26596 ft 496 kts 94°
2026-05-05 16:09 53.26008 -4.84955 26912 ft 496 kts 94°
2026-05-05 16:09 53.25871 -4.81073 27134 ft 495 kts 94°
2026-05-05 16:10 53.25666 -4.75337 27463 ft 494 kts 94°
2026-05-05 16:10 53.25460 -4.69607 27797 ft 494 kts 94°
2026-05-05 16:10 53.25263 -4.63888 28154 ft 493 kts 94°
2026-05-05 16:10 53.25074 -4.58198 28472 ft 487 kts 94°
2026-05-05 16:11 53.24887 -4.52524 28742 ft 490 kts 94°
2026-05-05 16:11 53.24297 -4.35473 29834 ft 490 kts 95°
2026-05-05 16:12 53.24090 -4.29802 30207 ft 489 kts 95°
2026-05-05 16:12 53.23672 -4.18563 30870 ft 487 kts 95°
2026-05-05 16:13 53.23023 -4.01683 31952 ft 483 kts 95°
2026-05-05 16:13 53.22803 -3.96089 32336 ft 481 kts 95°
2026-05-05 16:13 53.22579 -3.90530 32704 ft 480 kts 95°
2026-05-05 16:14 53.22121 -3.79447 33419 ft 478 kts 95°
2026-05-05 16:14 53.21651 -3.68409 34144 ft 476 kts 95°
2026-05-05 16:15 53.21172 -3.57394 34758 ft 475 kts 95°
2026-05-05 16:15 53.20688 -3.46446 35464 ft 472 kts 95°
2026-05-05 16:16 53.20188 -3.35543 36091 ft 472 kts 95°
2026-05-05 16:16 53.19403 -3.24700 36692 ft 471 kts 105°
2026-05-05 16:17 53.16824 -3.14812 37043 ft 469 kts 126°
2026-05-05 16:17 53.14818 -3.10539 37054 ft 467 kts 133°
2026-05-05 16:18 53.08322 -2.98443 37056 ft 468 kts 133°
2026-05-05 16:19 53.01833 -2.86323 37047 ft 468 kts 133°
2026-05-05 16:19 52.95308 -2.74214 37039 ft 469 kts 133°
2026-05-05 16:20 52.86592 -2.58161 37046 ft 468 kts 133°
2026-05-05 16:22 52.75760 -2.38381 37047 ft 467 kts 133°
2026-05-05 16:23 52.67035 -2.22509 37051 ft 466 kts 133°
2026-05-05 16:23 52.60483 -2.10681 37051 ft 466 kts 133°
2026-05-05 16:24 52.56136 -2.02859 37042 ft 466 kts 133°
2026-05-05 16:25 52.49565 -1.91094 37035 ft 465 kts 134°
2026-05-05 16:25 52.42993 -1.79393 37024 ft 464 kts 134°
2026-05-05 16:26 52.34223 -1.63850 37022 ft 464 kts 134°
2026-05-05 16:27 52.29774 -1.56200 37022 ft 464 kts 135°
2026-05-05 16:27 52.25308 -1.48641 37017 ft 463 kts 135°
2026-05-05 16:28 52.20869 -1.41123 37023 ft 462 kts 135°
2026-05-05 16:28 52.16417 -1.33577 37024 ft 462 kts 135°
2026-05-05 16:29 52.11959 -1.26042 37021 ft 461 kts 135°
2026-05-05 16:29 52.07512 -1.18536 37011 ft 461 kts 135°
2026-05-05 16:30 52.03044 -1.11044 36985 ft 461 kts 135°
2026-05-05 16:30 51.98547 -1.03612 36993 ft 460 kts 137°
2026-05-05 16:31 51.93825 -0.96625 36987 ft 459 kts 141°
2026-05-05 16:31 51.88986 -0.89876 36985 ft 458 kts 141°
2026-05-05 16:32 51.84180 -0.83096 36986 ft 458 kts 140°
2026-05-05 16:32 51.79451 -0.76303 36976 ft 457 kts 140°
2026-05-05 16:33 51.74692 -0.69481 36983 ft 456 kts 140°
2026-05-05 16:33 51.69944 -0.62700 36968 ft 456 kts 140°
2026-05-05 16:34 51.65217 -0.55889 36965 ft 456 kts 136°
2026-05-05 16:34 51.61572 -0.47543 36965 ft 460 kts 116°
2026-05-05 16:35 51.59540 -0.38317 36963 ft 461 kts 110°
2026-05-05 16:35 51.57521 -0.28576 36959 ft 462 kts 110°
2026-05-05 16:36 51.55470 -0.18791 36957 ft 462 kts 110°
2026-05-05 16:36 51.53427 -0.09065 36957 ft 462 kts 110°
2026-05-05 16:37 51.51389 0.00627 36966 ft 462 kts 110°
2026-05-05 16:37 51.49324 0.10399 36971 ft 462 kts 110°
2026-05-05 16:38 51.47251 0.20146 36972 ft 461 kts 110°
2026-05-05 16:38 51.45203 0.29730 36967 ft 461 kts 110°
2026-05-05 16:39 51.43115 0.39448 36967 ft 461 kts 110°
2026-05-05 16:39 51.41018 0.49167 36963 ft 461 kts 111°
2026-05-05 16:40 51.38925 0.58863 36969 ft 461 kts 111°
2026-05-05 16:40 51.36820 0.68555 36970 ft 461 kts 111°
2026-05-05 16:41 51.34707 0.78214 36966 ft 460 kts 111°
2026-05-05 16:41 51.32589 0.87815 36990 ft 460 kts 111°
2026-05-05 16:42 51.30803 0.95904 36951 ft 460 kts 112°